DW8228 Weather Reports


time (UTC)temp
C
wind
direction
speed
KPH
gust
KPH
rain 1hr
cm
rain 24hr
cm
rain mn
cm
humidity
%
barometer
mb
20260506150050 9 196 11.3 16.1 0.00 0.00 0.00 42 1013.5
20260506144554 8 202 11.3 19.3 0.00 0.00 0.00 44 1013.5
20260506143048 8 211 12.9 19.3 0.00 0.00 0.00 43 1013.5
20260506141547 8 202 14.5 17.7 0.00 0.00 0.00 39 1013.6
20260506140047 9 203 14.5 16.1 0.00 0.00 0.00 39 1013.6
20260506134545 8 200 12.9 17.7 0.00 0.00 0.00 41 1013.6
20260506133056 9 210 14.5 19.3 0.00 0.00 0.00 42 1013.6
20260506131543 10 210 14.5 17.7 0.00 0.00 0.00 38 1013.7
20260506130042 10 202 16.1 19.3 0.00 0.00 0.00 39 1013.6
20260506124540 10 203 12.9 16.1 0.00 0.00 0.00 41 1013.7
20260506123039 10 203 14.5 19.3 0.00 0.00 0.00 39 1013.5
20260506121537 10 194 11.3 16.1 0.00 0.00 0.00 38 1013.7
20260506120036 11 198 8.0 14.5 0.00 0.00 0.00 36 1013.8
20260506114539 11 206 3.2 17.7 0.00 0.00 0.00 28 1013.7
20260506113033 11 286 4.8 14.5 0.00 0.00 0.00 25 1013.7
20260506111533 11 296 4.8 17.7 0.00 0.00 0.00 28 1013.7
20260506110039 11 241 4.8 16.1 0.00 0.00 0.00 29 1013.6
20260506104554 11 252 6.4 17.7 0.00 0.00 0.00 28 1013.6
20260506103027 10 297 8.0 19.3 0.00 0.00 0.00 27 1013.6
20260506101525 10 284 4.8 16.1 0.00 0.00 0.00 30 1013.6
20260506100021 10 271 6.4 20.9 0.00 0.00 0.00 36 1013.4
20260506094517 8 252 8.0 16.1 0.00 0.00 0.00 52 1013.2
20260506093014 8 210 14.5 19.3 0.00 0.00 0.00 53 1013.1
20260506091512 7 203 14.5 19.3 0.00 0.00 0.00 54 1012.9
20260506090010 7 212 12.9 17.7 0.00 0.00 0.00 54 1012.8
20260506084508 7 219 11.3 17.7 0.00 0.00 0.00 55 1012.8
20260506083014 7 202 16.1 20.9 0.00 0.00 0.00 57 1012.8
20260506081509 7 184 12.9 17.7 0.00 0.00 0.00 60 1012.8
20260506073001 7 177 14.5 17.7 0.00 0.00 0.00 60 1012.6
20260506071624 7 192 8.0 14.5 0.00 0.00 0.00 59 1012.4
20260506061548 5 211 9.7 11.3 0.00 0.00 0.00 59 1012.0
20260506044537 4 224 8.0 11.3 0.00 0.00 0.00 60 1011.2
20260506043031 4 242 11.3 16.1 0.00 0.00 0.00 60 1011.0
20260506041531 3 238 11.3 17.7 0.00 0.00 0.00 61 1010.9
20260506040041 3 242 9.7 19.3 0.00 0.00 0.00 61 1010.7
20260506034525 3 234 9.7 16.1 0.00 0.00 0.00 62 1010.5
20260506033027 3 233 9.7 16.1 0.00 0.00 0.00 62 1010.4
20260506031522 3 229 11.3 16.1 0.00 0.00 0.00 62 1010.3
20260506030021 3 231 11.3 16.1 0.00 0.00 0.00 61 1010.1
20260506024528 3 234 11.3 16.1 0.00 0.00 0.00 61 1010.0
20260506023017 3 233 8.0 14.5 0.00 0.00 0.00 61 1009.9
20260506021528 3 256 9.7 14.5 0.00 0.00 0.00 61 1009.8
20260506020016 3 240 11.3 19.3 0.00 0.00 0.00 60 1009.8
20260506014521 3 252 11.3 19.3 0.00 0.00 0.00 61 1009.6
20260506013009 3 247 11.3 20.9 0.00 0.00 0.00 61 1009.4
20260506011518 3 229 12.9 19.3 0.00 0.00 0.00 61 1009.2
20260506010011 3 239 11.3 20.9 0.00 0.00 0.00 62 1009.1
20260506004505 3 238 12.9 17.7 0.00 0.00 0.00 62 1009.1
20260506003001 3 234 11.3 17.7 0.00 0.00 0.00 64 1009.0
20260506001623 3 227 6.4 12.9 0.00 0.00 0.00 64 1008.9
20260506000109 3 236 9.7 12.9 0.00 0.00 0.00 64 1008.8
20260505234611 3 233 8.0 11.3 0.00 0.00 0.00 63 1008.7
20260505233052 3 233 8.0 11.3 0.00 0.00 0.00 63 1008.6
20260505231551 3 225 9.7 14.5 0.00 0.00 0.00 64 1008.5
20260505230051 3 238 9.7 14.5 0.00 0.00 0.00 65 1008.5
20260505224548 3 215 11.3 14.5 0.00 0.00 0.00 65 1008.5
20260505223057 4 209 9.7 12.9 0.00 0.00 0.00 66 1008.5
20260505221545 4 202 9.7 14.5 0.00 0.00 0.00 65 1008.4
20260505220046 4 212 8.0 12.9 0.00 0.00 0.00 65 1008.3
20260505214553 4 209 8.0 12.9 0.00 0.00 0.00 66 1008.3
20260505213043 3 210 9.7 14.5 0.00 0.00 0.00 66 1008.2
20260505211548 4 213 9.7 14.5 0.00 0.00 0.00 66 1008.2
20260505210038 4 214 11.3 14.5 0.00 0.00 0.00 64 1008.2
20260505204537 4 213 9.7 12.9 0.00 0.00 0.00 65 1008.1
20260505203049 4 204 11.3 16.1 0.00 0.00 0.00 65 1008.0
20260505201534 4 213 9.7 14.5 0.00 0.00 0.00 66 1007.9
20260505200032 4 215 9.7 14.5 0.00 0.00 0.00 65 1007.8
20260505194531 4 205 11.3 14.5 0.00 0.00 0.00 65 1007.6
20260505193130 4 213 11.3 16.1 0.00 0.00 0.00 63 1007.7
20260505191529 4 195 9.7 16.1 0.00 0.00 0.00 62 1007.7
20260505190028 4 219 12.9 17.7 0.00 0.00 0.00 59 1007.6
20260505184536 4 227 12.9 17.7 0.00 0.00 0.00 58 1007.3
20260505183035 5 207 11.3 16.1 0.00 0.00 0.00 58 1007.3
20260505181523 5 224 11.3 16.1 0.00 0.00 0.00 57 1007.1
20260505180021 5 232 12.9 19.3 0.00 0.00 0.00 56 1006.9
20260505174520 6 217 14.5 22.5 0.00 0.00 0.00 55 1006.8
20260505173019 6 215 16.1 20.9 0.00 0.00 0.00 58 1006.7
20260505171518 6 220 11.3 22.5 0.00 0.00 0.00 53 1006.7
20260505170021 6 220 14.5 22.5 0.00 0.00 0.00 54 1006.7
20260505164516 6 221 16.1 25.7 0.00 0.00 0.00 55 1006.7
20260505163014 6 193 19.3 29.0 0.00 0.00 0.00 56 1006.7
20260505161513 6 212 20.9 30.6 0.00 0.00 0.00 54 1006.5
20260505153109 8 215 19.3 25.7 0.00 0.00 0.00 42 1006.1
20260505151508 8 234 20.9 30.6 0.00 0.00 0.00 44 1006.1